[Iaude] MPEC N110: 2024 NO2 [a=2.15,e=0.44,i=9.9,H=23.3]
    mpec at cfa.harvard.edu 
    mpec at cfa.harvard.edu
       
    Tue Jul  9 07:54:51 EDT 2024
    
    
  
M.P.E.C. 2024-N110                                 Issued 2024 July 9, 11:53 UT
     The Minor Planet Electronic Circulars contain information on unusual
         minor planets, routine data on comets and natural satellites,
         and occasional editorial announcements.  They are published
    on behalf of Division F of the International Astronomical Union by the
          Minor Planet Center, Smithsonian Astrophysical Observatory,
                          Cambridge, MA 02138, U.S.A.
			  
             Prepared using the Tamkin Foundation Computer Network
                              MPC at CFA.HARVARD.EDU
            URL https://www.minorplanetcenter.net/    ISSN 1523-6714
                                    2024 NO2                                    
Observations:
     K24N02O  C2024 06 29.48125620 25 31.586-19 19 10.21         21.65GVEN110F52
     K24N02O  C2024 06 29.49307020 25 33.457-19 19 32.88         21.32GVEN110F52
     K24N02O  C2024 06 29.56386320 25 44.805-19 21 47.54         22.10GVEN110F52
     K24N02O  C2024 06 29.56551820 25 45.065-19 21 50.34         21.69GVEN110F52
     K24N02O  C2024 07 05.50037320 43 54.146-22 46 48.06         21.56GVEN110F51
     K24N02O  C2024 07 05.51138620 43 56.081-22 47 12.53         21.67GVEN110F51
     K24N02O  C2024 07 05.52238020 43 58.066-22 47 35.72         21.47GVEN110F51
     K24N02O* C2024 07 06.47546120 47 04.326-23 23 16.75         21.46wXEN110F52
     K24N02O  C2024 07 06.48529720 47 06.132-23 23 39.62         21.23wXEN110F52
     K24N02O  C2024 07 06.49513420 47 07.887-23 24 01.56         21.72wXEN110F52
     K24N02O  C2024 07 06.50497020 47 09.664-23 24 24.02         21.65wXEN110F52
     K24N02O  C2024 07 06.55355520 47 18.449-23 26 13.63         21.34GVEN110F51
     K24N02O  C2024 07 06.55419820 47 18.572-23 26 15.15         21.32GVEN110F51
     K24N02O $C2024 07 07.05119120 48 58.417-23 45 10.44               VEN110J04
     K24N02O $C2024 07 07.07101020 49 02.057-23 45 56.90               VEN110J04
     K24N02O 3C2024 07 07.57000820 50 39.695-24 05 01.56         21.25GVEN110T14
     K24N02O 3C2024 07 07.57098420 50 39.873-24 05 03.78         21.58GVEN110T14
     K24N02O 3C2024 07 07.57196120 50 40.058-24 05 05.98         21.30GVEN110T14
     K24N02O KC2024 07 09.29949 20 56 32.93 -25 12 37.9          21.3 RVEN110691
     K24N02O KC2024 07 09.31434 20 56 35.80 -25 13 12.4                VEN110691
Observer details:
691 Steward Observatory, Kitt Peak-Spacewatch.  Observer T. H. Bressi.  0.9-m
    f/3 reflector + CCD.
F51 Pan-STARRS 1, Haleakala.  Observers J. Herman, T. Lowe, P. Minguez, A.
    Schultz, I. Smith.  Measurers K. Chambers, T. de Boer, J. Fairlamb, H.
    Gao, M. Huber, C.-C. Lin, E. Magnier, Y. Ramanjooloo, R. Wainscoat, R.
    Weryk.  1.8-m Ritchey-Chretien + CCD.
F52 Pan-STARRS 2, Haleakala.  Observers J. Herman, T. Lowe, P. Minguez, A.
    Schultz, I. Smith.  Measurers K. Chambers, T. de Boer, J. Fairlamb, H.
    Gao, M. Huber, C.-C. Lin, E. Magnier, Y. Ramanjooloo, R. Wainscoat, R.
    Weryk.  1.8-m Ritchey-Chretien + CCD.
J04 ESA Optical Ground Station, Tenerife.  Observers P. Ruiz, M. Micheli, F.
    Ocana, L. Conversi.  Measurers F. Ocana, M. Micheli, R. Kresken.
    1.0-m f/4.4 reflector + CCD.
T14 Canada-France-Hawaii Telescope, Maunakea.  Observers R. Wainscoat, H.
    Januszewski, H. Flewelling.  Measurers R. Weryk, R. Wainscoat.  3.6-m
    f/4.1 reflector + CCD.
Orbital elements:
2024 NO2                                                 Earth MOID = 0.2044 AU
Epoch 2024 Mar. 31.0 TT = JDT 2460400.5                 Veres                   
M 320.69353              (2000.0)            P               Q                  
n   0.31185242     Peri.  211.03848     +0.68879653     +0.70548883             
a   2.1536245      Node   103.08615     -0.62504006     +0.69452809             
e   0.4416671      Incl.    9.86439     -0.36726594     +0.14112491             
P   3.16           H   23.33          G   0.15           U   8                  
Residuals in seconds of arc
240629 F52  0.1+  0.0     240706 F52  0.1-  0.0     240707 J04  0.1+  0.2+
240629 F52  0.1-  0.0     240706 F52 (0.3+  0.4-)   240707 T14  0.1-  0.1-
240629 F52  0.1+  0.2-    240706 F52  0.0   0.0     240707 T14  0.1-  0.1-
240629 F52  0.0   0.2+    240706 F52  0.0   0.1-    240707 T14  0.1-  0.1-
240705 F51  0.1+  0.5-    240706 F51  0.1-  0.0     240709 691  0.1+  0.0
240705 F51  0.1-  0.4-    240706 F51  0.0   0.1-    240709 691 (0.2+  1.3+)
240705 F51  0.3+  0.8+    240707 J04  0.3+  0.7+
Ephemeris:
2024 NO2                 a,e,i = 2.15, 0.44, 10                  q = 1.2024
Date    TT    R. A. (2000) Decl.     Delta      r    Elong.  Phase     V
2024 06 09    19 35 06.9 -11 50 09   0.3705  1.3316   143.6    26.9    23.0
...
2024 06 24    20 10 22.4 -16 39 44   0.2859  1.2747   151.3    22.5    22.2
...
2024 07 02    20 32 58.4 -20 41 42   0.2528  1.2501   154.8    20.3    21.8
...
2024 07 08    20 52 06.9 -24 21 12   0.2340  1.2347   156.4    19.2    21.6
2024 07 09    20 55 30.0 -25 00 17   0.2314  1.2324   156.5    19.2    21.6
2024 07 10    20 58 56.6 -25 39 55   0.2290  1.2302   156.6    19.1    21.6
...
2024 07 16    21 20 45.3 -29 44 45   0.2175  1.2186   156.3    19.6    21.4
...
2024 07 24    21 52 18.6 -35 04 18   0.2105  1.2079   153.5    22.0    21.4
...
2024 08 08    22 51 06.3 -42 26 41   0.2199  1.2031   146.3    27.9    21.7
M. P. C. Staff               (C) Copyright 2024 MPC           M.P.E.C. 2024-N110
    
    
More information about the Iaude
mailing list